Location: Bauerbach
(50.4985°N, 10.3912°E)
Time: 23:41:19
(UTC+00:00)

Cosmos 2263 Rocket - Pass Details

Date: 13 January 2026
Orbit: 821 x 849 km, 71.0° (Epoch: 16 February)

Event Time Altitude Azimuth Distance (km) Brightness Sun altitude
Exits shadow 03:45:10 14° 6° (N) 2,187 4.4 -32.5°
Drops below altitude 10° 03:46:15 10° 14° (NNE) 2,480 4.8 -32.3°
Sets 03:49:12 0° 28° (NNE) 3,422 5.8 -31.8°
